Location: Unspecified
(0.0000°N, 0.0000°E)
Time: 11:12:57
(UTC+00:00)

Transit 2A - Pass Details

Date: 26 November 2019
Orbit: 602 x 957 km, 66.7° (Epoch: 14 December)

Event Time Altitude Azimuth Distance (km) Brightness Sun altitude
Rises 20:13:52 0° 354° (N) 2,972 - -33.9°
Reaches altitude 10° 20:16:10 10° 1° (N) 2,108 - -34.4°
Maximum altitude 20:20:41 42° 72° (ENE) 1,034 - -35.4°
Drops below altitude 10° 20:25:40 10° 141° (SE) 2,331 - -36.5°
Sets 20:28:19 0° 148° (SSE) 3,325 - -37.1°
